Weather History for Coatesville, PA

Change the Weather History Date:

Saturday, January 25, 2014

  Actual Average (KLNS) Record (KLNS)
Temperature  
Mean Temperature 20 °F -  
Max Temperature 26 °F 41 °F 58 °F (1993)
Min Temperature 14 °F 22 °F 0 °F (1987)
Degree Days  
Heating Degree Days 45    
Moisture  
Dew Point 12 °F    
Average Humidity 67    
Maximum Humidity 93    
Minimum Humidity 39    
Precipitation  
Precipitation 2.39 in - - ()
Sea Level Pressure  
Sea Level Pressure 29.65 in    
Wind  
Wind Speed 6 mph (SSW)    
Max Wind Speed 30 mph    
Max Gust Speed 40 mph    
Visibility 8 miles    
Events Snow    
Averages and records for this station are not official NWS values.
T = Trace of Precipitation, MM = Missing Value Source: NWS Daily Summary

Daily Weather History Graph

Daily Weather History Graph

Search for Another Location

Airport:

Trip Planner

Search our weather history database for the weather conditions in past years. The results will help you decide how hot, cold, wet, or windy it might be!

Date:

Astronomy

Jan. 25, 2014 Rise Set
Actual Time 7:17 AM EST 5:14 PM EST
Civil Twilight 6:48 AM EST 5:43 PM EST
Nautical Twilight 6:15 AM EST 6:16 PM EST
Astronomical Twilight 5:43 AM EST 6:48 PM EST
Moon 1:47 AM EST (1/25) 12:13 PM EST (1/25)
Length of Visible Light 10h 54m
Length of Day
9h 56m
Waning Crescent, 34% of the Moon is Illuminated
Jan 25
Waning Crescent
Jan 30
New
Feb 6
First Quarter
Feb 14
Full
Feb 22
Last Quarter

Hourly Weather History & Observations

Time (EST) Temp. Windchill Dew Point Humidity Pressure Visibility Wind Dir Wind Speed Gust Speed Precip Events Conditions
12:15 AM 14.0 °F 6.5 °F 1.4 °F 57% 30.02 in 10.0 mi South 4.6 mph - N/A   Clear
12:35 AM 14.0 °F 5.1 °F 1.4 °F 57% 30.00 in 10.0 mi South 5.8 mph - N/A   Clear
12:55 AM 14.0 °F 8.2 °F 1.4 °F 57% 29.99 in 10.0 mi South 3.5 mph - N/A   Clear
1:15 AM 17.6 °F 10.7 °F -0.4 °F 45% 29.98 in 10.0 mi SSW 4.6 mph - N/A   Clear
1:35 AM 19.4 °F 11.5 °F -0.4 °F 42% 29.96 in 10.0 mi South 5.8 mph - N/A   Clear
1:55 AM 21.2 °F 10.1 °F -0.4 °F 39% 29.95 in 10.0 mi South 10.4 mph 16.1 mph N/A   Clear
2:15 AM 19.4 °F 9.5 °F 1.4 °F 46% 29.94 in 10.0 mi South 8.1 mph 18.4 mph N/A   Clear
2:35 AM 15.8 °F 8.6 °F 1.4 °F 53% 29.93 in 10.0 mi South 4.6 mph - N/A   Clear
2:55 AM 14.0 °F 8.2 °F 1.4 °F 57% 29.91 in 10.0 mi South 3.5 mph - N/A   Clear
3:15 AM 14.0 °F 8.2 °F 3.2 °F 62% 29.89 in 10.0 mi South 3.5 mph - N/A   Clear
3:35 AM 17.6 °F 12.3 °F 3.2 °F 53% 29.88 in 10.0 mi South 3.5 mph - N/A   Clear
3:55 AM 19.4 °F 9.5 °F 3.2 °F 49% 29.86 in 10.0 mi South 8.1 mph - N/A   Clear
4:15 AM 21.2 °F 13.6 °F 5.0 °F 50% 29.85 in 10.0 mi South 5.8 mph - N/A   Clear
4:35 AM 21.2 °F 11.7 °F 3.2 °F 46% 29.84 in 10.0 mi SSW 8.1 mph 16.1 mph N/A   Clear
4:55 AM 21.2 °F 12.6 °F 3.2 °F 46% 29.82 in 10.0 mi South 6.9 mph - N/A   Clear
5:15 AM 21.2 °F 12.6 °F 5.0 °F 50% 29.81 in 10.0 mi South 6.9 mph - N/A   Clear
5:35 AM 21.2 °F 11.7 °F 5.0 °F 50% 29.80 in 10.0 mi South 8.1 mph - N/A   Clear
5:55 AM 21.2 °F 10.1 °F 5.0 °F 50% 29.79 in 10.0 mi South 10.4 mph - N/A   Clear
6:15 AM 21.2 °F 10.1 °F 3.2 °F 46% 29.78 in 10.0 mi South 10.4 mph 18.4 mph N/A   Clear
6:35 AM 21.2 °F 10.9 °F 3.2 °F 46% 29.77 in 10.0 mi SSW 9.2 mph - N/A   Clear
6:55 AM 21.2 °F 11.7 °F 3.2 °F 46% 29.76 in 10.0 mi SSW 8.1 mph 18.4 mph N/A   Clear
7:15 AM 21.2 °F 12.6 °F 3.2 °F 46% 29.75 in 10.0 mi South 6.9 mph 16.1 mph N/A   Clear
7:35 AM 21.2 °F 13.6 °F 3.2 °F 46% 29.74 in 10.0 mi South 5.8 mph 16.1 mph N/A   Clear
7:55 AM 23.0 °F 13.9 °F 5.0 °F 46% 29.73 in 10.0 mi SSW 8.1 mph - N/A   Clear
8:15 AM 23.0 °F 13.1 °F 5.0 °F 46% 29.73 in 10.0 mi SSW 9.2 mph - N/A   Partly Cloudy
8:35 AM 23.0 °F 14.7 °F 5.0 °F 46% 29.71 in 10.0 mi South 6.9 mph - N/A   Scattered Clouds
8:55 AM 23.0 °F 13.9 °F 5.0 °F 46% 29.71 in 10.0 mi SSW 8.1 mph - N/A   Scattered Clouds
9:15 AM 23.0 °F 14.7 °F 6.8 °F 50% 29.70 in 10.0 mi South 6.9 mph - N/A   Scattered Clouds
9:35 AM 23.0 °F 14.7 °F 8.6 °F 54% 29.69 in 10.0 mi South 6.9 mph - N/A   Partly Cloudy
9:55 AM 23.0 °F 13.9 °F 8.6 °F 54% 29.68 in 9.0 mi South 8.1 mph - N/A Snow Light Snow
10:15 AM 23.0 °F 13.9 °F 14.0 °F 68% 29.67 in 1.2 mi South 8.1 mph 19.6 mph 0.01 in Snow Light Snow
10:35 AM 21.2 °F 12.6 °F 17.6 °F 86% 29.66 in 0.8 mi South 6.9 mph 17.3 mph 0.03 in Snow Light Snow
10:55 AM 21.2 °F 13.6 °F 19.4 °F 93% 29.65 in 0.5 mi South 5.8 mph - 0.08 in Snow Light Snow
11:15 AM 21.2 °F 10.9 °F 19.4 °F 93% 29.62 in 0.5 mi South 9.2 mph - 0.09 in Snow Light Snow
11:35 AM 23.0 °F 15.8 °F 19.4 °F 86% 29.60 in 1.0 mi South 5.8 mph 16.1 mph 0.17 in Snow Light Snow
11:55 AM 23.0 °F 14.7 °F 17.6 °F 80% 29.58 in 10.0 mi SSW 6.9 mph - 0.17 in   Mostly Cloudy
12:15 PM 23.0 °F 14.7 °F 19.4 °F 86% 29.56 in 10.0 mi SSW 6.9 mph - N/A   Overcast
12:35 PM 23.0 °F 13.9 °F 19.4 °F 86% 29.54 in 10.0 mi South 8.1 mph - N/A   Mostly Cloudy
12:55 PM 23.0 °F 13.1 °F 19.4 °F 86% 29.53 in 10.0 mi South 9.2 mph 17.3 mph N/A   Mostly Cloudy
1:15 PM 23.0 °F 13.9 °F 19.4 °F 86% 29.52 in 10.0 mi SSW 8.1 mph - N/A Snow Light Snow
1:35 PM 23.0 °F 18.4 °F 19.4 °F 86% 29.51 in 0.8 mi SSW 3.5 mph - 0.04 in Snow Light Snow
1:55 PM 23.0 °F 15.8 °F 21.2 °F 93% 29.49 in 0.5 mi South 5.8 mph - 0.18 in Snow Light Snow
2:15 PM 23.0 °F 14.7 °F 21.2 °F 93% 29.48 in 0.8 mi South 6.9 mph - 0.04 in Snow Light Snow
2:35 PM 23.0 °F 15.8 °F 21.2 °F 93% 29.48 in 0.5 mi South 5.8 mph - 0.14 in Snow Light Snow
2:55 PM 23.0 °F 14.7 °F 21.2 °F 93% 29.46 in 0.8 mi SW 6.9 mph - 0.30 in Snow Light Snow
3:15 PM 23.0 °F 15.8 °F 19.4 °F 86% 29.45 in 1.5 mi South 5.8 mph - 0.03 in Snow Light Snow
3:35 PM 23.0 °F 17.0 °F 19.4 °F 86% 29.45 in 10.0 mi South 4.6 mph - 0.03 in Snow Light Snow
3:55 PM 23.0 °F 17.0 °F 19.4 °F 86% 29.46 in 9.0 mi SSW 4.6 mph - 0.03 in Snow Light Snow
4:15 PM 24.8 °F 19.1 °F 19.4 °F 80% 29.46 in 10.0 mi SSW 4.6 mph - N/A   Scattered Clouds
4:35 PM 23.0 °F 18.4 °F 17.6 °F 80% 29.45 in 10.0 mi SW 3.5 mph - N/A   Clear
4:55 PM 23.0 °F - 15.8 °F 74% 29.45 in 10.0 mi Calm Calm - N/A   Clear
5:15 PM 21.2 °F 16.4 °F 15.8 °F 80% 29.46 in 10.0 mi SSW 3.5 mph - N/A   Clear
5:35 PM 21.2 °F - 15.8 °F 80% 29.46 in 10.0 mi Calm Calm - N/A   Scattered Clouds
5:55 PM 21.2 °F - 15.8 °F 80% 29.46 in 10.0 mi Calm Calm - N/A   Partly Cloudy
6:15 PM 21.2 °F 16.4 °F 15.8 °F 80% 29.47 in 10.0 mi SW 3.5 mph - N/A   Clear
6:35 PM 23.0 °F 18.4 °F 14.0 °F 68% 29.47 in 10.0 mi WSW 3.5 mph - N/A   Clear
6:55 PM 23.0 °F 18.4 °F 14.0 °F 68% 29.47 in 10.0 mi West 3.5 mph - N/A   Clear
7:15 PM 23.0 °F 17.0 °F 14.0 °F 68% 29.47 in 10.0 mi SW 4.6 mph - N/A   Clear
7:35 PM 23.0 °F 15.8 °F 12.2 °F 63% 29.47 in 10.0 mi WSW 5.8 mph - N/A   Clear
7:55 PM 23.0 °F 17.0 °F 12.2 °F 63% 29.47 in 10.0 mi SW 4.6 mph - N/A   Clear
8:15 PM 24.8 °F 19.1 °F 12.2 °F 59% 29.47 in 10.0 mi WSW 4.6 mph - N/A   Clear
8:35 PM 23.0 °F 17.0 °F 12.2 °F 63% 29.48 in 10.0 mi SW 4.6 mph - N/A   Clear
8:55 PM 23.0 °F 14.7 °F 12.2 °F 63% 29.48 in 10.0 mi WSW 6.9 mph - N/A   Clear
9:15 PM 26.6 °F 21.2 °F 14.0 °F 59% 29.48 in 10.0 mi WSW 4.6 mph - N/A   Scattered Clouds
10:15 PM 26.6 °F 18.2 °F 17.6 °F 69% 29.51 in 7.0 mi WNW 8.1 mph - N/A Snow Light Snow
10:35 PM 26.6 °F 20.0 °F 23.0 °F 86% 29.51 in 1.8 mi WSW 5.8 mph - 0.57 in Snow Light Snow
10:55 PM 26.6 °F 20.0 °F 23.0 °F 86% 29.52 in 7.0 mi WSW 5.8 mph - 0.57 in   Partly Cloudy
11:15 PM 26.6 °F 16.8 °F 23.0 °F 86% 29.53 in 10.0 mi WNW 10.4 mph - N/A   Partly Cloudy
11:35 PM 26.6 °F 10.3 °F 24.8 °F 93% 29.56 in 1.2 mi NW 29.9 mph 40.3 mph 0.36 in Snow Heavy Snow
11:55 PM 26.6 °F 14.7 °F 23.0 °F 86% 29.56 in - WNW 15.0 mph 21.9 mph 1.06 in   Unknown